Location: Kershaw
(34.5481°N, 80.5823°W)
Time: 15:53:12
(UTC+00:00)

Courier 1B Rocket - Pass Details

Date: 27 September 2022
Orbit: 920 x 1202 km, 28.2° (Epoch: 08 December)

Event Time Altitude Azimuth Distance (km) Brightness Sun altitude
Rises 05:52:05 0° 265° (W) 3,551 - -55.9°
Reaches altitude 10° 05:54:46 10° 259° (W) 2,618 - -55.7°
Maximum altitude 06:00:39 43° 190° (S) 1,309 - -55.3°
Drops below altitude 10° 06:06:47 10° 121° (ESE) 2,735 - -54.8°
Sets 06:09:40 0° 114° (ESE) 3,726 - -54.6°
